This is the latest recevied weather packets stored in our database for station/object PU5BHV. If no packets are shown the sender has not sent any weather packets the latest 10 day(s).
| Time | Temp. | Humidity | Pressure | Rain* | Wind** | Luminosity | Snow |
|---|---|---|---|---|---|---|---|
| 1777668063 | 22.22° C | 91% | 1015.2 hPa | 0 mm | - | 3 W/m² | - |
| 1777667760 | 22.78° C | 90% | 1015.4 hPa | 0 mm | - | 6 W/m² | - |
| 1777667458 | 22.78° C | 89% | 1015.2 hPa | 0 mm | - | 10 W/m² | - |
| 1777667155 | 22.78° C | 88% | 1015.3 hPa | 0 mm | - | 12 W/m² | - |
| 1777666851 | 23.33° C | 87% | 1015.4 hPa | 0 mm | - | 15 W/m² | - |
| 1777666548 | 23.33° C | 86% | 1015.2 hPa | 0 mm | - | 17 W/m² | - |
| 1777666245 | 23.89° C | 85% | 1015.4 hPa | 0 mm | - | 19 W/m² | - |
| 1777665942 | 23.89° C | 85% | 1015.1 hPa | 0 mm | - | 21 W/m² | - |
| 1777665639 | 23.89° C | 84% | 1015.4 hPa | 0 mm | - | 23 W/m² | - |
| 1777665337 | 24.44° C | 81% | 1015.3 hPa | 0 mm | - | 29 W/m² | - |
| 1777665032 | 25.56° C | 78% | 1015.2 hPa | 0 mm | - | 62 W/m² | - |
| 1777664727 | 25.56° C | 76% | 1015.1 hPa | 0 mm | - | 72 W/m² | - |
| 1777664424 | 26.11° C | 76% | 1015.1 hPa | 0 mm | - | 84 W/m² | - |
| 1777664121 | 26.11° C | 74% | 1015.1 hPa | 0 mm | - | 101 W/m² | - |
| 1777663820 | 26.11° C | 75% | 1015.1 hPa | 0 mm | - | 113 W/m² | - |
| 1777663516 | 26.67° C | 74% | 1015.3 hPa | 0 mm | - | 114 W/m² | - |
| 1777663214 | 26.67° C | 73% | 1015 hPa | 0 mm | - | 144 W/m² | - |
| 1777662911 | 27.22° C | 72% | 1015.2 hPa | 0 mm | - | 165 W/m² | - |
| 1777662608 | 27.22° C | 70% | 1015.2 hPa | 0 mm | - | 173 W/m² | - |
| 1777662303 | 27.22° C | 72% | 1015.3 hPa | 0 mm | - | 189 W/m² | - |
| 1777661999 | 27.22° C | 72% | 1015.2 hPa | 0 mm | - | 211 W/m² | - |
| 1777661695 | 27.22° C | 70% | 1015.5 hPa | 0 mm | - | 241 W/m² | - |
| 1777661391 | 27.78° C | 71% | 1015.5 hPa | 0 mm | - | 250 W/m² | - |
| 1777661088 | 27.78° C | 68% | 1015.5 hPa | 0 mm | - | 263 W/m² | - |
| 1777660782 | 27.78° C | 68% | 1015.7 hPa | 0 mm | - | 284 W/m² | - |
* Rain latest hour (hover to see other rain measurements)
** Current wind speed in m/s (hover to see current wind gust speed)